Estació municipal de El Brull (Osona, P.N. del Montseny)

Consulta les dades en temps real de l'estació municipal de El Brull





Hora UTC 06:40
Temperatura 12.0 ºC
Humitat 59.5 %
Pressió 1014.1 hPa
Pluja 0.0 mm
Velocitat vent 1.8 km/h
Direcció vent SSW
Radiació solar 244.5 W/m²

Webcam

Dades diàries 2026-05-08



Hora UTC (hivern +1h; estiu +2h)
Temperatura (ºC) Humitat (%) Pressió (hPa) Velocitat vent (km/h) Precipitació (mm) Radiació solar (W/m²)
Hora UTC Aire Humitat Pressió Vel. Dir. Vel. Max Dir. Intent. màx 5 min. Rad. Sol.
00:10 9.1 82.8 1014.1 3.8 ENE 6.7 ENE 0.0 0.0
00:20 9.4 82.7 1014.1 2.6 ENE 6.1 ENE 0.0 0.0
00:30 9.5 84.0 1014.0 1.5 E 5.9 ENE 0.0 0.0
00:40 9.6 83.2 1014.0 2.3 E 5.9 ENE 0.0 0.0
00:50 9.8 82.4 1014.0 0.4 E 2.8 ESE 0.0 0.0
01:00 9.8 83.8 1014.0 0.1 NW 1.9 NW 0.0 0.0
01:10 9.6 84.2 1013.8 0.1 N 2.0 NNW 0.0 0.0
01:20 9.3 84.0 1013.8 0.7 ENE 2.1 ESE 0.0 0.0
01:30 9.3 82.5 1013.7 3.1 ESE 5.8 ESE 0.0 0.0
01:40 9.6 79.8 1013.7 2.1 E 4.4 SE 0.0 0.0
01:50 9.8 77.7 1013.7 1.3 E 2.7 ESE 0.0 0.0
02:00 9.6 78.8 1013.6 1.2 ESE 5.3 SE 0.0 0.0
02:10 9.3 78.8 1013.5 2.3 ESE 6.2 ESE 0.0 0.0
02:20 9.1 77.1 1013.4 0.4 ENE 2.5 NE 0.0 0.0
02:30 8.9 75.3 1013.5 1.2 S 5.2 SE 0.0 0.0
02:40 9.2 71.8 1013.5 1.6 ESE 5.4 SE 0.0 0.0
02:50 9.1 71.2 1013.4 0.9 SE 2.8 ESE 0.0 0.0
03:00 9.1 70.2 1013.3 0.4 SE 3.2 ESE 0.0 0.0
03:10 9.0 69.6 1013.3 1.5 ESE 6.0 SSE 0.0 0.0
03:20 8.9 69.1 1013.2 2.6 ESE 6.8 SE 0.0 0.0
03:30 9.1 68.0 1013.1 2.0 SE 5.5 SSE 0.0 0.0
03:40 9.1 68.4 1013.1 2.4 E 5.5 NE 0.0 0.0
03:50 8.7 69.6 1013.1 1.1 E 5.8 ESE 0.0 0.0
04:00 8.8 68.1 1013.1 1.5 ESE 5.2 ESE 0.0 0.0
04:10 9.0 66.2 1013.1 2.4 ESE 4.7 SE 0.0 0.0
04:20 9.1 65.1 1013.2 1.5 SE 3.4 ESE 0.0 0.1
04:30 9.1 65.4 1013.2 1.5 SE 5.1 SE 0.0 0.6
04:40 9.0 66.9 1013.3 2.2 SE 5.4 SE 0.0 2.1
04:50 9.1 68.1 1013.3 1.7 ESE 5.6 ESE 0.0 4.5
05:00 9.0 70.2 1013.3 2.5 ESE 5.1 SE 0.0 8.3
05:10 8.8 71.5 1013.4 3.7 SE 7.4 ESE 0.0 12.8
05:20 9.3 71.8 1013.5 2.3 ESE 6.9 ESE 0.0 17.1
05:30 9.3 73.2 1013.5 1.9 ESE 6.1 SE 0.0 19.9
05:40 9.8 72.2 1013.6 1.9 ESE 4.7 SE 0.0 53.5
06:00 10.3 71.1 1013.8 0.6 SSW 3.1 SSW 0.0 80.5
06:10 10.6 67.9 1013.9 0.7 SSW 2.4 WSW 0.0 198.0
06:20 11.6 61.0 1013.9 1.8 SSE 3.6 S 0.0 94.3
06:30 11.9 59.7 1014.0 1.8 SSW 3.5 SSW 0.0 95.2
06:40 12.0 59.5 1014.1 1.8 SSW 3.4 S 0.0 244.5
Màxima 12.0 84.2 1014.1 3.8 ENE 7.4 ESE 0.0 244.5
Mínima 8.7 59.5 1013.1
Total 0.0